Regional Weather Roundup
Issued by NWS

Home | Current Version | Previous Version | Graphics & Text | Print | Product List | Glossary On
Versions: 1 2 3 4 5 6 7 8 9 10 11 12 13 14 15 16 17 18 19 20 21 22 23 24 25 26 27 28 29 30 31 32 33 34 35 36 37 38 39 40 41 42 43 44 45 46 47 48 49 50
000
ASUS43 KFSD 290202
RWRSD

WEATHER ROUNDUP FOR SOUTH DAKOTA
NATIONAL WEATHER SERVICE SIOUX FALLS SD
900 PM CDT THU MAY 28 2015

NOTE: "FAIR" INDICATES FEW OR NO CLOUDS BELOW 12,000 FEET WITH NO
SIGNIFICANT WEATHER AND/OR OBSTRUCTIONS TO VISIBILITY.


SDZ001>005-009-010-012>017-290300-
NORTHWEST AND NORTH CENTRAL SOUTH DAKOTA

CITY           SKY/WX    TMP DP  RH WIND       PRES   REMARKS
BUFFALO          N/A     59  54  83 N8        29.91R
FAITH            N/A     62  55  77 W14       29.92R
MOBRIDGE       LGT RAIN  65  62  90 NW3       29.83S FOG
$$

SDZ012>016-024>037-041>051-057-063-072>074-290300-
SOUTHWEST AND SOUTH CENTRAL SOUTH DAKOTA

CITY           SKY/WX    TMP DP  RH WIND       PRES   REMARKS
RAPID CTY ARPT CLOUDY    59  53  80 N20       29.95F
PIERRE         CLOUDY    63  59  87 E7        29.85R
CUSTER         CLOUDY    53  44  71 N6        30.04S
PHILIP         LGT RAIN  60  57  89 W7        29.92S
PINE RIDGE     LGT RAIN  57  53  86 N7        29.98R
WINNER         FAIR      65  57  75 S5        29.84F
$$

SDZ004>011-016>023-039-040-290300-
NORTHEAST SOUTH DAKOTA

CITY           SKY/WX    TMP DP  RH WIND       PRES   REMARKS
ABERDEEN       TSTM      65  60  84 NW8       29.80R
WATERTOWN      MOCLDY    72  58  61 S14G22    29.83R
BROOKINGS      MOCLDY    72  54  53 S15       29.88R
SISSETON         N/A     77  59  53 SW20      29.77R
$$

SDZ017-020-022-023-036>040-048>070-290300-
SOUTHEAST SOUTH DAKOTA

CITY           SKY/WX    TMP DP  RH WIND       PRES   REMARKS
SIOUX FALLS    CLOUDY    69  58  67 S15       29.88S
HURON            N/A    N/A N/A N/A MISG      29.79F
CHAMBERLAIN    LGT RAIN  64  61  90 S6        29.83F
MITCHELL       MOCLDY    74  63  68 S14       29.83R
YANKTON        PTCLDY    72  61  68 S12G17    29.86R
$$

ABBREVIATIONS USED IN REMARKS
   TC - TEMPERATURE IN CELSIUS
  WCI - WIND CHILL INDEX
   HX - HEAT INDEX
  VSB - VISIBILITY




USA.gov is the U.S. government's official web portal to all federal, state and local government web resources and services.